Wind_Speed
77 75 75 77 80 83 84 84 83 84 85 87 89 89 88 89 92 89 83 84 88 85 83 85 85 85 87 89 91 91 90 90 91 92 94 95 93 92 92 92 91 91 91 90 90 90 89 89 89 89 88 88 87 87 86 86 85 85 84 84 84 83 83 83 83 84 84 84 85 85 85 85 86 86 86 86 87 87 87 88 88 89 89 89 90 90 91
75 74 76 78 80 82 82 81 79 78 79 82 85 87 88 88 90 89 83 83 86 83 79 81 84 86 87 88 89 89 87 87 90 92 94 94 93 92 92 91 90 90 90 91 91 91 90 90 89 89 88 88 88 87 87 87 87 87 87 86 86 86 86 86 86 86 87 87 87 87 87 88 88 88 88 89 89 89 89 89 90 90 91 91 92 93 93
72 73 78 80 81 83 81 76 72 74 77 80 82 83 83 84 85 84 81 83 83 78 76 80 84 86 87 88 88 86 84 86 88 89 90 90 90 90 89 89 89 89 89 90 90 90 89 89 89 88 88 87 87 87 87 88 88 88 88 89 89 88 88 88 88 88 89 89 89 89 89 90 91 91 91 91 91 91 91 91 91 91 92 92 93 94 94
72 72 79 83 84 84 77 69 70 76 81 81 78 76 76 77 79 79 79 79 75 70 75 81 82 82 85 86 86 86 85 86 86 86 86 85 85 86 85 86 86 87 88 88 88 88 87 87 86 85 85 85 84 84 85 85 85 86 87 88 88 88 88 88 88 88 88 88 88 88 90 91 91 92 92 92 92 92 91 91 91 91 91 92 92 93 94
74 74 81 84 84 80 72 69 76 81 80 78 75 73 73 74 75 75 74 73 68 67 74 78 76 78 81 82 84 85 84 84 84 85 85 83 83 82 82 82 82 83 84 85 84 83 82 81 81 80 80 80 80 80 80 80 80 81 82 83 84 84 85 85 85 85 85 85 85 86 87 88 89 89 90 90 90 89 88 88 87 88 88 88 89 90 91
78 77 82 85 81 74 70 74 79 79 77 77 75 72 69 69 71 71 69 67 64 67 72 73 72 75 78 80 81 81 80 80 82 86 85 82 81 80 79 80 80 80 81 81 80 78 76 75 75 75 74 74 74 74 74 74 75 76 77 77 78 79 80 80 80 80 79 79 80 80 81 83 84 84 84 84 84 83 83 82 82 83 83 84 84 85 86
80 79 83 85 78 72 71 75 77 77 76 75 73 68 65 66 68 67 65 63 62 66 69 69 70 73 76 77 77 77 76 76 80 84 84 82 80 79 78 78 78 78 78 78 76 74 71 71 70 69 69 69 68 68 68 69 70 71 72 72 74 74 74 74 73 72 72 72 73 74 75 76 76 76 76 76 76 76 75 75 76 77 78 79 80 80 81
81 80 82 82 76 70 70 72 75 77 76 72 69 65 62 65 66 64 61 60 61 64 66 65 67 70 73 74 73 72 71 72 75 80 81 81 78 76 76 76 76 76 77 76 74 72 70 69 67 66 65 64 63 63 64 65 66 66 68 69 70 70 69 68 67 66 66 66 67 68 69 69 69 69 69 69 69 69 69 69 70 71 72 73 74 75 74
81 80 80 79 74 68 65 68 72 74 73 71 68 62 59 63 65 61 58 58 60 62 62 62 66 69 70 69 67 67 66 67 72 77 79 78 75 73 73 74 73 73 74 74 72 70 69 67 65 63 62 60 60 60 61 62 63 64 65 66 66 65 64 63 63 62 62 62 63 64 64 63 63 62 61 62 62 62 62 62 63 64 65 67 68 68 68
78 78 76 73 70 64 62 65 68 70 70 68 65 60 58 62 62 57 55 56 57 59 60 63 65 65 64 62 61 62 64 67 71 75 76 75 72 70 69 69 69 69 70 71 70 69 68 65 62 60 59 58 57 58 59 60 61 62 63 64 63 61 60 60 59 59 59 60 60 60 59 58 58 57 57 57 56 56 55 55 56 57 59 60 62 62 62
75 75 72 67 63 60 60 62 64 66 66 64 61 58 57 59 59 54 52 54 55 58 61 62 61 60 59 58 59 62 66 68 70 72 72 72 70 66 64 65 65 66 67 68 68 67 65 62 60 58 57 55 54 56 58 59 60 60 61 60 59 58 58 57 57 56 57 57 57 56 55 55 54 54 53 52 51 49 48 48 50 53 53 54 55 55 55
75 74 69 63 60 57 56 59 60 61 61 61 59 55 53 56 56 52 51 53 55 58 59 58 57 57 58 58 60 62 65 67 68 69 69 69 67 62 60 61 62 63 65 66 66 65 62 59 58 56 53 51 52 55 57 58 59 59 58 57 56 56 55 54 54 53 53 53 52 51 51 51 51 50 48 47 45 44 44 44 46 48 49 48 49 49 49
72 71 66 61 58 55 53 54 56 57 57 58 56 52 51 54 53 50 51 53 54 56 56 55 56 57 57 57 59 61 65 67 66 66 66 66 64 59 56 57 60 62 64 65 64 62 59 56 55 53 49 49 51 54 56 57 57 57 55 54 53 52 52 51 50 49 48 47 46 46 47 47 47 45 43 42 41 41 41 42 43 44 44 43 43 44 44
66 65 62 58 54 53 52 51 50 52 54 54 53 51 51 52 51 49 51 53 53 53 54 55 56 57 56 57 58 61 64 65 64 63 63 62 60 57 54 55 59 62 64 64 62 59 56 53 51 48 47 47 50 52 54 55 54 53 52 51 50 49 49 48 45 43 42 41 41 42 43 43 41 39 38 37 38 38 38 38 38 39 39 39 39 40 41
61 60 58 54 51 49 49 47 46 49 51 51 49 50 50 49 48 48 50 51 51 51 53 55 56 55 56 57 58 60 63 63 62 62 61 59 58 55 53 56 60 62 62 61 59 56 52 49 47 45 45 46 49 51 52 52 51 49 48 47 46 46 45 43 41 39 38 38 38 39 39 37 36 35 34 34 34 34 34 34 34 35 36 36 37 39 40
58 56 53 51 49 46 45 44 45 47 48 47 47 48 48 46 45 47 49 49 49 50 52 54 55 55 57 58 59 60 61 61 60 59 58 56 54 52 53 56 59 61 60 57 56 53 48 44 43 43 44 45 47 49 49 48 47 46 45 44 44 42 40 38 37 36 35 35 35 35 34 33 32 31 31 30 29 30 31 32 34 35 35 35 36 38 39
54 51 49 49 47 43 42 42 44 45 46 44 44 46 47 45 43 45 47 47 47 48 50 52 54 55 56 57 58 58 58 58 57 56 54 53 51 51 52 55 58 59 57 54 52 49 43 40 41 42 43 44 46 47 47 46 44 43 42 42 40 38 36 35 35 34 32 32 31 31 31 30 29 29 28 26 26 28 30 32 33 33 33 34 35 37 38
49 46 47 47 44 41 40 40 41 43 43 42 42 44 46 44 42 43 44 45 46 46 48 50 52 53 53 54 55 56 56 55 55 54 53 52 51 51 52 54 57 58 55 51 48 44 40 38 40 41 42 43 45 46 45 43 41 40 40 38 36 34 33 33 32 31 30 29 29 28 29 28 27 26 25 23 25 28 30 30 30 31 32 34 35 36 38
44 43 45 45 41 39 38 38 39 41 41 40 41 43 45 44 41 40 42 43 44 45 45 48 49 50 50 52 54 55 54 53 53 53 52 51 50 50 51 54 57 55 51 47 44 40 37 38 39 41 42 42 44 44 42 40 39 38 36 34 32 32 31 31 30 28 27 26 26 27 27 26 25 24 23 23 25 28 28 28 29 31 32 33 34 35 37
40 43 44 40 37 37 37 36 37 39 39 40 40 41 42 42 39 38 40 42 42 43 44 46 47 47 49 51 52 52 53 53 53 52 51 50 49 49 51 54 54 51 46 43 40 37 36 38 39 40 40 41 42 42 40 38 36 35 32 31 30 30 29 28 27 26 24 24 25 26 26 25 24 23 22 23 25 26 26 27 29 31 32 32 33 33 33
39 43 41 36 34 36 36 34 36 38 38 39 39 39 40 40 38 37 39 40 40 41 43 44 44 45 48 50 51 51 53 53 52 50 49 48 48 48 51 53 51 47 43 41 37 36 37 38 38 39 39 40 41 40 37 35 34 32 30 29 29 28 27 26 25 24 23 23 24 25 25 24 23 22 22 23 24 24 25 27 29 30 31 31 31 30 30
40 40 36 33 35 35 33 33 35 37 37 37 37 38 39 39 37 37 37 38 40 42 43 44 44 45 48 49 49 51 53 52 49 47 47 46 46 47 50 50 48 45 41 38 36 36 36 37 37 38 38 38 39 38 35 33 31 29 28 28 27 26 25 24 23 22 22 23 24 24 24 24 23 21 21 22 23 23 24 27 28 28 28 29 29 28 28
40 37 32 32 35 33 31 32 35 36 36 35 36 37 38 38 37 37 37 39 40 42 44 44 44 45 47 47 48 50 51 49 47 45 45 44 44 46 48 47 45 42 39 36 35 35 36 36 36 37 37 37 37 35 33 31 29 28 27 26 26 25 25 24 23 22 22 23 24 25 25 24 22 21 20 22 23 23 23 25 26 25 25 25 26 26 26
39 34 30 32 34 31 29 32 35 35 34 34 35 37 38 38 38 38 38 40 41 43 44 44 44 45 46 46 48 49 49 47 45 43 42 42 44 45 46 45 42 40 37 35 34 35 35 35 36 36 36 35 35 34 31 29 27 26 26 25 25 25 24 24 23 22 22 23 24 25 25 24 22 20 19 21 22 21 21 22 22 22 21 21 22 22 23
35 31 29 32 32 29 28 31 33 33 32 34 36 37 38 38 39 39 40 41 43 44 45 44 44 45 45 46 48 48 47 45 44 42 41 42 43 44 43 42 40 37 35 34 34 35 35 35 35 35 34 35 34 33 30 28 26 26 25 25 25 25 25 24 23 23 23 24 25 25 24 23 22 19 19 21 21 19 18 18 18 17 17 17 18 19 20
32 29 28 30 30 28 28 31 32 31 32 34 35 37 38 39 40 40 41 42 43 44 44 44 44 44 44 46 46 45 44 43 42 41 41 42 42 41 40 39 38 36 34 34 34 35 35 35 35 34 34 34 34 32 29 27 26 25 25 25 25 25 26 25 24 23 24 25 25 25 24 23 21 18 18 20 19 16 15 14 14 14 15 15 16 17 18
29 28 27 29 29 28 29 31 31 31 32 34 35 37 38 39 40 41 41 42 43 43 44 44 43 43 44 44 44 44 43 42 42 42 42 41 41 39 38 37 36 35 34 34 34 35 35 35 34 33 33 34 33 31 29 27 25 25 25 25 26 26 26 26 25 24 24 25 26 25 24 23 21 18 17 18 17 13 12 12 12 13 14 14 15 16 17
27 26 27 28 28 29 30 31 31 31 32 33 35 36 37 38 40 41 42 42 43 43 43 43 42 43 43 43 43 43 43 43 43 42 41 41 40 38 37 36 35 34 34 34 35 35 35 35 34 33 33 34 33 30 28 26 25 25 25 26 26 27 27 26 26 25 25 26 26 25 23 22 20 17 16 17 15 12 10 11 12 13 13 14 14 15 15
26 27 27 28 29 29 29 30 30 31 32 33 34 36 37 38 40 41 42 43 44 44 43 43 43 43 44 43 43 43 42 42 42 41 40 40 39 37 36 36 35 35 35 35 35 35 35 35 34 33 33 33 32 30 28 26 25 25 26 26 27 28 28 27 26 26 26 26 26 25 23 22 19 16 15 16 14 11 10 11 12 12 12 13 13 12 11
26 27 28 29 29 29 29 30 30 31 32 33 34 35 36 38 40 41 43 44 44 44 44 43 43 43 43 43 42 42 42 41 40 39 39 39 38 37 36 36 36 36 36 35 35 35 35 35 34 33 33 33 32 30 28 26 24 25 26 27 28 29 29 28 28 27 26 27 26 25 23 22 19 16 15 15 13 11 11 11 10 10 11 11 10 9 10
26 27 28 28 29 29 29 30 30 31 32 33 34 34 36 37 39 41 43 44 44 44 44 42 42 42 42 42 41 41 41 40 39 39 39 39 38 37 37 37 37 37 37 36 36 36 36 35 34 33 33 33 32 30 28 26 25 25 27 28 29 30 30 29 29 28 27 27 27 25 23 22 19 16 16 16 14 12 12 11 10 9 9 9 9 9 11
25 26 27 28 28 29 29 30 30 31 32 33 34 34 35 36 37 40 42 44 45 44 42 41 41 41 41 40 40 40 39 39 39 40 40 40 39 39 39 39 39 38 37 36 37 37 36 36 35 34 34 34 32 30 28 26 25 27 29 30 31 31 31 30 29 28 27 28 27 25 24 23 20 17 17 16 15 14 13 12 11 11 10 10 11 13 16
24 25 26 27 28 29 30 30 31 32 33 33 34 34 34 35 38 41 43 44 45 43 41 40 41 40 39 38 38 38 38 38 40 41 41 40 40 39 39 39 39 38 37 37 38 37 37 36 35 34 34 34 32 30 28 27 27 28 30 32 32 33 32 31 30 29 28 28 27 26 25 24 21 19 19 18 17 16 16 15 15 14 14 14 16 18 21
23 24 26 27 28 29 31 31 32 33 33 34 34 34 35 37 39 41 42 43 42 40 39 40 41 40 38 37 37 38 38 39 40 41 40 40 40 40 40 41 40 38 38 38 38 38 38 37 36 35 35 35 33 30 29 28 29 30 32 33 34 33 32 31 30 29 29 28 28 28 27 25 23 22 21 21 20 20 19 19 19 20 20 20 21 23 26
23 24 25 26 28 29 31 32 33 33 34 34 35 35 36 38 39 40 40 41 40 38 38 40 41 40 38 38 38 39 39 40 41 41 41 40 41 41 42 42 40 39 39 39 39 39 38 38 36 35 35 35 33 31 30 30 30 31 33 35 35 34 32 31 31 31 30 29 30 30 29 28 26 25 24 24 24 23 23 24 25 25 25 25 26 27 29
23 24 25 26 27 29 30 32 33 34 34 35 35 36 37 38 39 39 40 40 39 38 39 41 41 40 39 39 39 40 40 41 42 42 41 42 42 43 44 43 41 41 41 41 40 40 39 38 38 36 36 35 34 32 31 31 31 32 34 36 37 35 33 32 32 32 31 31 32 32 32 30 28 28 27 27 27 27 27 28 30 29 29 30 30 31 32
23 23 25 26 27 28 30 31 32 33 34 35 36 37 38 39 39 40 40 40 40 39 40 42 42 41 41 40 40 41 41 42 43 43 44 44 45 45 44 43 43 42 42 41 41 41 41 40 39 38 36 36 35 34 33 33 32 33 35 38 38 36 34 33 32 32 32 32 33 35 35 33 31 30 30 31 31 31 32 33 33 33 32 34 35 34 35
23 24 24 25 26 28 29 31 32 33 34 35 36 38 39 39 40 41 41 41 42 42 43 44 44 43 42 42 42 42 43 44 45 45 46 46 46 45 45 44 43 43 43 42 42 42 42 41 41 39 37 37 36 35 34 34 34 35 36 38 39 38 36 34 33 32 32 33 35 37 38 36 34 33 33 34 35 35 36 36 37 36 35 35 37 37 37
24 24 24 25 26 27 29 30 32 33 34 36 38 39 40 41 42 43 43 44 44 45 45 45 45 44 43 42 42 43 44 45 45 46 46 46 46 45 45 44 44 43 43 43 43 44 44 43 42 40 39 38 37 37 36 35 35 36 37 39 40 40 38 36 33 32 32 34 36 39 41 40 37 35 36 37 38 39 40 39 39 39 38 36 37 38 38
25 25 25 25 26 28 29 31 32 33 35 36 38 39 40 41 42 43 44 44 44 43 43 43 42 42 41 41 41 42 43 44 44 45 45 45 46 45 45 44 43 42 43 43 44 45 45 45 43 42 40 39 38 38 37 37 37 38 39 40 41 42 40 38 35 33 33 34 37 41 43 43 41 39 38 39 41 43 43 43 42 42 41 39 38 38 39
25 25 25 26 27 28 30 31 32 33 34 35 36 37 38 39 40 41 42 42 41 40 40 40 39 38 39 39 39 40 41 42 42 43 43 43 44 44 44 43 43 43 43 44 45 46 46 45 44 43 41 40 39 39 38 38 38 39 40 42 43 43 43 40 37 35 34 35 38 42 45 46 44 42 41 42 43 45 47 46 45 44 43 42 40 40 40
25 25 26 27 28 29 30 31 31 32 33 34 35 36 37 38 39 40 41 41 40 40 40 40 39 38 38 38 38 39 39 40 40 41 41 41 42 43 44 44 45 45 45 45 46 46 46 46 45 43 42 41 41 40 40 39 40 40 42 43 44 45 45 43 40 37 35 36 39 44 47 49 48 46 45 44 46 48 49 49 48 46 45 44 43 43 43
25 26 27 27 28 29 30 30 31 31 32 32 33 34 36 37 38 40 41 41 41 41 41 40 39 37 38 38 38 38 39 40 40 40 40 41 42 43 44 45 46 46 46 46 46 47 47 46 45 44 43 42 42 42 42 41 41 41 43 44 46 46 46 45 43 40 37 37 40 46 50 51 51 50 49 47 48 49 51 51 50 49 47 46 46 46 47
25 26 27 27 28 29 30 30 31 31 31 32 32 33 34 36 37 39 40 40 41 41 41 39 38 38 38 39 39 40 41 41 41 41 41 41 42 43 44 45 46 46 46 46 46 47 47 47 47 46 44 43 43 43 43 43 42 42 44 45 47 48 48 47 46 43 40 38 40 46 52 54 54 53 52 51 50 51 52 53 53 52 50 49 49 50 51
24 25 26 27 28 29 30 31 31 32 32 32 32 32 33 34 35 37 38 39 40 40 39 38 38 39 40 41 41 42 43 43 43 43 43 43 43 44 44 45 46 46 46 46 46 47 47 48 47 47 46 45 44 44 45 44 44 44 45 46 48 49 50 49 48 46 43 40 40 45 52 56 57 56 56 55 53 53 53 55 55 54 53 52 52 53 55
24 26 27 28 29 30 31 31 32 32 32 33 33 33 33 34 34 35 36 37 37 38 37 37 37 39 41 42 42 43 43 43 43 42 42 42 43 43 44 45 45 46 46 46 46 47 47 48 48 48 47 46 45 45 46 46 46 45 45 47 49 50 51 51 51 49 47 44 42 43 50 57 60 60 59 58 57 56 55 56 57 57 56 56 56 57 58
25 26 27 28 29 30 31 32 33 33 33 33 33 33 33 34 34 34 34 35 35 36 36 35 36 38 40 42 43 43 42 42 42 42 42 42 42 42 43 43 44 45 45 45 45 46 47 47 48 48 47 47 46 46 47 47 47 47 47 48 50 51 53 53 53 52 50 48 45 44 47 54 61 63 62 61 61 60 58 58 58 59 59 59 59 60 62
27 27 28 29 30 31 32 32 33 34 34 34 34 34 34 34 34 34 34 34 34 34 34 34 35 37 39 42 42 42 41 41 42 42 42 42 42 42 42 43 44 44 44 44 44 44 45 46 46 47 47 47 47 48 48 48 48 48 48 48 50 52 54 55 55 55 54 52 49 46 46 50 58 64 66 64 63 63 62 60 60 61 62 62 62 63 65
28 28 29 30 31 31 32 32 33 34 34 34 34 34 34 33 33 33 33 33 34 34 34 34 34 35 38 40 42 42 42 42 42 43 43 43 43 43 43 44 44 44 44 44 44 44 44 45 46 46 47 48 49 49 49 49 50 50 50 50 51 53 55 56 57 57 57 55 53 50 48 48 53 61 67 68 67 66 65 64 63 63 64 66 66 66 67
27 28 29 30 30 31 32 32 33 34 34 34 34 34 33 33 33 32 32 32 33 33 33 34 34 35 37 39 42 43 43 43 44 44 44 44 44 44 44 45 45 45 45 45 44 44 45 45 46 47 47 49 50 50 51 51 51 51 52 52 52 53 55 57 58 59 60 59 57 55 52 50 50 55 63 69 70 69 68 68 67 65 66 68 70 70 70
26 27 28 29 29 29 30 30 31 31 32 32 32 32 32 32 32 31 31 31 32 32 33 34 35 36 37 39 42 43 45 45 46 46 46 46 46 47 47 47 47 47 46 46 46 46 46 46 46 47 48 49 50 51 52 52 52 52 53 53 53 54 55 57 59 60 61 61 60 58 56 54 52 52 57 64 70 73 72 71 70 69 68 69 71 73 74
26 27 27 27 28 28 28 28 29 29 30 31 31 32 32 32 32 32 31 31 32 32 32 33 34 36 38 40 42 44 46 47 47 47 47 47 47 48 48 48 48 48 48 47 47 47 47 47 48 48 49 49 50 51 52 53 54 54 54 54 54 54 55 56 58 60 62 63 63 62 60 58 56 54 54 57 64 71 74 74 73 72 72 71 72 74 76
Wind_Direction
267 266 265 264 263 262 261 261 261 262 264 266 267 267 267 266 265 264 262 261 260 259 259 260 260 259 258 257 256 254 254 256 258 258 259 259 259 260 260 260 261 262 262 262 262 262 262 262 263 263 264 264 265 265 265 265 265 265 264 264 264 263 263 262 262 262 261 261 260 260 259 258 258 257 256 256 255 254 254 253 253 253 253 252 251 250 249
269 270 269 267 266 265 264 263 263 264 265 265 266 265 265 264 264 264 263 261 260 259 259 259 260 259 258 257 257 256 255 254 255 256 257 258 259 260 260 261 261 262 262 262 262 262 262 262 262 263 263 264 264 264 265 265 265 265 265 264 264 263 263 262 262 262 261 261 261 261 260 260 259 259 258 257 256 256 255 254 254 254 253 253 252 251 250
271 272 271 270 269 268 267 268 269 270 269 266 264 263 264 264 264 264 263 261 261 262 261 259 257 257 257 257 257 258 257 256 255 255 256 257 258 259 260 261 261 261 262 262 262 262 262 262 262 263 263 263 264 264 264 265 265 265 265 265 264 264 263 263 262 262 261 261 261 261 261 261 260 260 259 258 258 257 257 256 255 255 254 253 252 252 251
272 271 271 270 270 270 271 274 275 272 269 267 266 266 266 266 265 264 262 260 261 261 260 258 256 256 256 256 257 257 257 257 258 258 258 258 259 259 260 260 261 261 261 261 261 262 262 262 263 263 263 264 264 264 264 264 265 265 264 264 264 264 263 263 262 262 261 261 261 261 260 260 260 259 259 259 258 258 257 257 256 255 254 253 253 252 251
275 273 272 271 271 273 276 277 273 270 270 270 269 268 267 266 265 264 262 262 260 258 256 256 256 256 255 255 255 256 256 258 259 260 259 259 259 260 260 261 262 262 262 262 262 263 263 264 264 264 264 264 265 265 265 265 265 265 264 264 264 263 263 263 262 262 262 261 261 260 260 259 259 259 258 258 258 258 257 257 256 255 254 253 252 252 251
276 274 273 273 274 276 277 274 272 272 272 271 269 268 267 267 266 265 264 262 259 256 254 254 254 254 253 253 253 254 255 256 258 259 259 259 260 260 261 262 263 263 264 264 265 265 266 266 266 266 266 266 266 267 267 267 267 266 266 265 264 264 263 263 263 263 262 262 262 261 260 260 259 259 258 258 258 257 257 256 255 255 254 253 252 251 250
275 274 274 275 276 277 276 274 274 273 272 270 270 269 268 267 265 263 262 260 257 255 254 252 251 251 252 252 252 253 253 254 255 257 259 259 260 260 261 262 263 263 264 265 266 266 267 267 267 267 268 268 269 269 269 269 268 268 267 266 266 265 265 265 265 265 264 264 263 262 262 261 260 260 259 259 258 257 256 256 255 254 253 252 252 251 250
275 275 274 275 277 277 276 275 274 273 273 272 270 268 266 265 263 260 258 256 255 253 252 251 250 250 250 251 251 251 252 252 254 256 257 258 258 259 259 260 261 262 263 265 265 266 267 267 267 268 269 270 270 270 270 269 268 268 268 267 267 267 268 268 268 268 267 266 265 264 263 262 261 261 260 260 259 258 257 255 254 253 252 252 251 250 249
276 276 275 276 278 278 277 275 274 273 272 271 269 267 265 264 262 259 256 254 252 251 250 249 249 248 248 249 250 251 251 251 252 254 255 257 257 258 258 259 260 262 263 264 265 265 266 266 267 268 269 270 271 270 269 268 268 268 268 268 268 269 270 270 270 269 268 268 266 265 265 264 264 263 262 261 259 258 256 255 254 252 252 251 250 249 248
278 277 277 277 278 279 277 274 272 271 270 269 268 267 265 264 262 258 255 253 250 249 248 247 246 247 248 248 248 249 249 249 250 252 255 257 257 257 258 259 260 261 262 263 263 264 264 266 267 269 270 271 270 270 269 268 268 268 268 269 270 271 271 271 270 270 269 268 268 267 267 267 266 265 263 261 260 258 256 255 254 252 250 249 249 247 246
281 280 279 279 279 278 276 272 270 269 269 268 266 264 263 262 260 257 254 251 249 247 246 245 246 246 246 245 244 245 246 247 248 251 254 256 257 256 257 258 259 259 260 261 261 262 263 265 267 268 269 270 269 269 268 268 268 268 269 270 271 272 272 271 271 270 269 268 268 268 268 268 267 265 264 263 261 260 257 255 254 252 249 248 248 247 245
282 281 281 282 280 277 274 271 268 267 266 266 264 262 261 260 258 255 252 249 247 246 246 245 245 244 243 243 242 244 246 247 248 250 252 255 256 256 255 256 257 257 258 259 259 260 262 264 266 266 267 267 267 267 267 267 268 269 270 272 272 272 272 272 270 269 268 268 268 267 267 266 265 264 264 263 262 260 258 255 253 251 249 248 247 246 245
282 282 282 281 280 277 273 269 267 266 264 263 262 261 258 257 255 253 250 247 245 244 244 243 242 242 242 242 242 244 246 247 248 250 252 254 256 255 254 254 255 255 255 256 257 259 261 263 264 264 264 264 264 265 265 266 267 269 271 272 273 273 272 271 270 268 268 267 267 265 264 263 264 264 263 262 261 258 255 253 251 250 249 247 246 245 244
281 281 280 279 278 275 272 268 266 265 263 261 260 258 255 253 253 250 248 246 244 243 243 242 241 240 240 241 241 242 245 247 248 249 251 253 254 254 253 252 253 253 254 255 257 259 260 261 262 262 261 261 261 263 264 265 268 270 271 273 273 273 272 271 270 268 267 266 265 264 262 262 263 263 261 258 256 254 251 250 248 247 246 245 243 243 242
281 280 279 279 276 273 270 267 264 262 260 259 258 256 253 251 250 248 247 245 243 242 241 241 241 240 239 239 239 240 243 246 247 248 249 251 252 252 251 250 251 252 253 255 257 258 259 259 259 258 258 259 260 262 263 266 268 271 272 273 273 271 270 270 269 267 265 264 263 262 262 262 261 259 256 253 250 249 247 246 244 243 243 242 241 241 241
280 279 280 278 275 272 269 266 262 259 257 256 255 254 252 249 246 246 245 244 242 240 239 239 239 239 239 239 239 239 241 244 246 247 248 249 249 248 248 248 250 252 253 255 256 258 258 257 257 257 257 258 260 262 265 267 270 272 273 273 271 270 269 269 268 266 264 263 262 261 261 259 256 253 251 247 245 244 243 242 241 241 240 240 238 237 237
279 280 279 277 274 271 268 264 260 258 256 254 252 251 250 247 243 243 243 242 240 239 238 238 239 238 238 240 241 242 242 244 246 247 248 248 246 245 245 247 250 252 253 254 255 256 256 255 254 256 257 258 260 263 265 268 271 273 272 271 269 268 268 267 266 265 264 262 260 258 257 254 251 248 245 242 240 240 240 239 239 238 236 235 233 233 233
279 279 277 274 273 270 266 262 259 257 255 252 249 247 247 245 241 239 240 241 239 238 237 238 239 240 240 240 241 242 242 243 245 246 246 245 244 243 244 247 249 251 252 253 253 254 253 252 252 254 256 258 260 263 266 269 271 271 270 268 268 267 266 266 265 263 261 258 256 254 252 249 246 244 241 238 235 235 235 235 236 235 234 233 232 233 234
279 277 273 272 272 270 266 261 258 255 252 249 246 244 245 244 240 237 237 238 238 237 236 237 238 239 239 239 240 241 242 242 243 244 244 244 243 243 243 246 249 251 252 252 252 252 250 249 250 252 254 257 260 263 266 269 269 268 267 267 267 266 265 264 262 259 256 253 251 249 247 245 243 241 237 232 230 230 231 232 235 238 238 238 237 237 237
277 273 270 272 272 268 264 260 255 253 250 248 245 243 243 243 240 235 234 235 236 236 236 236 236 236 238 239 240 241 242 242 242 242 242 242 242 241 243 246 249 251 251 251 250 249 247 247 249 251 254 257 260 263 266 267 267 266 266 267 267 266 263 261 258 254 251 248 246 245 243 242 240 237 231 226 226 229 232 235 240 243 244 245 244 242 240
273 269 270 272 269 265 262 258 254 251 249 246 244 242 241 241 238 234 232 232 233 233 234 235 235 234 236 238 239 241 242 242 241 241 241 240 240 241 242 245 248 248 248 248 247 245 245 246 248 250 253 256 259 262 265 265 264 265 266 266 265 263 260 257 253 249 245 242 241 240 239 239 237 232 226 225 228 232 237 242 246 248 248 248 245 242 236
270 268 269 268 264 261 259 255 252 249 247 244 241 239 239 239 236 232 230 229 229 230 231 232 232 233 234 236 238 240 242 242 241 241 241 239 238 239 241 244 245 245 244 244 244 243 244 245 247 249 252 255 258 261 262 262 262 263 264 265 262 259 255 251 247 243 239 236 236 236 236 236 233 227 225 229 234 237 243 248 249 248 245 242 239 235 232
267 266 265 262 259 257 255 251 248 246 244 241 238 236 236 236 233 230 227 226 227 228 229 229 230 231 234 235 237 239 242 242 241 241 240 239 237 238 240 242 243 243 242 242 241 242 243 244 246 248 251 254 257 259 259 258 259 260 261 260 257 253 249 244 240 236 231 230 231 231 232 233 229 225 229 237 241 243 247 249 246 240 236 236 236 235 234
264 264 261 258 257 255 251 248 246 245 242 239 235 234 233 233 231 229 226 224 225 227 228 229 229 231 233 234 236 239 241 242 242 240 239 238 237 237 239 241 241 241 240 239 239 241 242 243 244 247 251 254 256 257 256 255 256 257 257 253 249 245 242 239 234 229 225 224 226 227 229 229 225 224 234 244 247 247 248 244 237 232 233 238 242 242 241
265 264 260 257 257 253 248 246 245 243 240 236 233 232 231 230 229 227 225 224 224 226 228 229 230 231 232 234 236 238 240 241 242 240 239 238 237 236 237 239 239 238 236 236 238 240 241 242 243 246 250 253 255 255 253 253 254 254 250 245 241 239 237 234 229 225 222 221 222 224 226 225 222 224 237 247 250 249 244 236 233 236 242 249 253 253 251
264 261 257 255 255 251 246 243 242 240 237 234 232 231 230 228 228 227 226 225 225 226 229 230 230 231 233 234 237 239 239 240 241 240 239 238 236 235 235 236 236 234 233 234 237 238 239 241 243 245 248 251 253 253 252 252 252 250 245 239 235 233 232 229 225 221 219 219 220 221 223 222 221 224 237 248 249 244 237 236 243 253 259 263 265 264 259
262 258 253 251 250 247 243 240 238 236 234 233 231 230 229 228 227 227 227 227 227 227 229 230 231 232 233 235 237 238 239 239 239 239 238 237 236 234 234 234 233 231 231 233 235 236 238 240 242 244 247 250 251 251 250 249 249 246 240 234 230 229 228 226 222 218 216 216 218 219 220 220 221 225 236 244 243 236 234 246 260 267 270 274 275 270 261
258 254 249 246 244 242 240 238 236 233 232 231 230 229 229 227 227 227 227 228 229 229 229 230 230 231 233 235 236 237 238 238 238 238 237 237 235 233 233 232 230 228 229 230 232 234 236 238 241 243 246 248 250 249 248 247 246 242 235 229 227 226 226 224 221 217 214 214 216 218 218 220 222 226 232 237 234 229 237 255 267 272 276 278 275 267 255
253 248 245 242 241 240 238 237 234 231 229 229 229 229 228 227 227 227 227 228 229 230 230 229 230 231 232 234 236 237 238 238 238 238 237 237 235 233 232 230 227 226 227 228 230 232 235 237 239 241 244 247 248 247 245 245 242 236 229 225 224 224 224 223 221 217 214 213 214 215 216 219 223 225 227 227 225 225 239 254 263 269 273 273 269 258 241
250 246 242 240 238 237 236 234 232 229 228 228 228 228 228 228 228 228 228 228 229 230 230 230 231 232 233 235 237 238 239 239 240 239 238 237 235 233 231 227 224 224 225 225 227 230 233 236 238 240 243 245 246 244 243 242 238 231 225 221 220 221 221 222 221 218 215 214 214 213 213 218 222 221 219 219 217 220 234 245 252 256 259 259 253 235 214
248 244 242 239 236 235 234 232 231 228 226 225 226 226 227 227 228 229 229 229 230 231 231 231 231 233 234 236 237 238 239 240 240 239 238 236 234 231 228 225 223 224 223 223 225 228 230 234 237 239 241 243 243 241 240 238 233 225 220 217 217 218 219 220 220 218 216 215 214 212 212 216 217 214 211 213 213 216 224 230 230 230 234 234 221 201 185
246 243 242 239 236 234 232 231 229 227 225 224 224 224 225 226 228 229 229 230 231 231 232 231 232 233 234 235 236 237 238 237 236 235 235 234 232 229 226 224 223 223 222 222 224 226 228 232 235 237 239 241 240 238 237 235 228 220 215 213 214 215 217 220 220 218 217 217 216 213 211 213 212 206 204 208 211 211 211 209 203 201 201 196 184 172 163
243 241 240 238 234 232 230 228 227 226 224 223 222 222 222 223 225 227 228 229 230 231 231 231 232 233 233 233 233 234 234 234 234 233 233 232 230 228 226 224 223 222 220 220 222 225 227 230 232 234 237 239 238 236 234 232 225 216 212 211 212 213 215 218 219 218 217 218 218 215 212 210 206 199 199 204 207 204 199 193 186 182 179 174 166 160 155
241 239 238 236 233 230 228 227 225 224 223 222 221 220 220 221 224 226 228 230 231 231 230 231 232 232 232 232 232 232 232 232 233 233 232 231 230 228 225 224 223 220 219 219 221 223 226 229 230 231 234 236 236 233 231 229 222 214 210 210 210 211 214 217 219 218 217 218 218 217 213 209 202 195 196 202 202 196 190 185 179 174 170 167 162 157 154
240 237 236 235 233 231 229 227 225 224 222 221 220 219 219 221 224 226 227 229 230 230 229 230 232 232 231 232 232 231 231 231 231 231 230 229 229 227 226 224 221 219 218 218 219 222 225 227 228 229 231 234 234 231 229 227 221 212 208 209 209 210 211 215 218 219 217 216 216 215 213 208 199 192 194 199 198 191 186 182 177 173 170 166 161 158 156
240 237 235 233 232 230 229 228 227 225 223 222 220 219 220 221 224 225 227 228 229 228 228 230 231 231 231 231 232 231 231 230 230 230 228 227 227 227 226 224 221 218 217 216 218 221 224 226 227 227 228 230 231 229 227 226 221 211 206 207 208 208 209 214 218 219 218 216 214 212 211 207 198 191 193 198 195 189 185 183 179 176 172 167 163 161 160
240 237 234 233 232 230 230 229 228 226 224 222 221 220 221 222 224 225 226 227 227 227 227 229 230 230 230 230 231 231 231 231 230 229 228 227 227 227 227 225 221 218 216 216 218 221 223 224 226 226 225 227 229 227 225 224 220 211 206 207 207 206 208 212 217 218 218 216 212 209 209 206 198 191 193 196 192 188 186 185 183 181 178 173 168 167 167
240 237 234 232 231 231 230 229 228 227 225 223 222 221 222 223 224 226 226 227 227 226 227 228 229 230 230 230 230 231 231 231 230 230 230 229 228 228 227 226 223 219 216 216 218 221 222 223 225 224 224 225 226 226 224 223 219 212 207 207 207 206 206 210 215 218 219 217 211 206 205 204 199 193 193 195 192 188 188 188 186 185 184 182 177 175 175
239 236 234 231 229 229 229 229 228 226 225 224 223 222 222 223 225 226 226 227 227 227 227 228 229 229 230 230 231 231 231 231 231 231 231 232 231 230 229 227 224 220 218 218 219 220 222 223 223 223 223 223 224 224 223 222 219 214 209 207 207 206 206 208 213 217 219 218 212 205 202 201 199 195 194 195 192 189 189 190 189 187 188 189 187 184 182
236 235 232 230 229 229 229 229 228 227 227 226 226 226 226 227 228 229 230 231 231 231 231 231 231 232 232 233 233 233 234 234 234 234 233 234 233 232 231 229 227 223 220 219 220 221 222 223 223 223 222 221 222 223 222 221 218 214 210 207 207 206 206 207 210 214 218 218 213 206 201 200 198 197 196 196 194 191 190 192 192 190 190 191 193 192 189
237 236 233 231 230 230 230 230 230 230 229 229 229 230 230 231 232 233 235 236 237 236 235 235 234 234 235 236 236 236 236 236 236 236 236 235 235 234 232 231 229 225 222 221 221 221 222 223 223 222 221 221 221 222 222 221 218 215 211 208 207 207 206 206 208 211 215 217 213 207 202 199 198 198 198 198 196 194 193 194 195 195 194 194 197 198 196
238 237 235 233 232 232 233 233 233 232 232 232 232 231 230 230 231 233 234 236 236 235 235 234 233 233 234 235 236 236 237 236 236 236 235 235 234 233 231 230 229 226 224 222 222 222 223 223 223 222 221 220 221 222 222 221 219 216 212 210 209 208 207 206 207 209 212 214 213 208 204 200 198 198 199 200 199 197 197 197 198 199 200 199 200 201 200
238 237 236 235 234 234 235 235 236 235 235 234 234 233 233 232 231 232 233 234 234 233 233 232 231 231 232 233 234 234 235 235 235 234 233 232 232 231 230 230 229 227 225 223 223 223 223 223 224 223 221 220 220 221 222 222 220 217 214 211 210 209 208 207 207 208 210 212 212 209 206 202 200 199 200 201 201 200 200 200 201 202 204 204 203 203 201
240 239 238 237 237 237 237 237 237 238 237 236 236 235 235 234 234 234 234 235 234 234 233 232 229 228 229 230 230 230 231 232 232 231 230 230 230 230 229 229 229 228 226 224 223 223 223 223 223 223 222 220 219 220 221 222 221 218 215 213 211 211 210 209 208 208 209 210 211 210 207 205 202 201 201 202 203 203 202 202 203 204 206 207 206 204 201
241 241 240 239 238 238 238 238 238 239 239 238 237 236 236 236 235 235 235 235 235 235 235 232 228 227 228 229 229 229 229 230 230 229 229 228 228 228 228 229 229 228 226 225 224 223 223 223 223 223 223 221 220 220 221 222 221 219 216 214 212 212 211 210 209 209 209 210 211 211 209 207 205 203 202 203 204 205 205 205 205 205 206 207 207 205 203
241 241 241 240 239 240 240 240 240 240 239 239 238 237 236 236 236 236 236 236 236 235 235 232 228 226 228 230 230 230 231 231 232 231 230 230 229 229 229 229 229 229 228 226 224 223 223 223 223 223 223 222 221 220 220 221 222 220 218 215 213 212 212 212 211 210 210 210 211 211 210 209 208 206 205 204 205 206 206 207 206 206 207 207 207 206 204
240 239 240 240 240 240 240 241 242 242 242 241 240 239 238 237 236 236 235 235 235 235 234 232 228 226 227 229 231 232 233 233 233 233 232 232 231 232 232 232 232 232 231 229 227 225 224 224 224 224 224 223 222 221 220 220 221 221 220 217 215 213 213 213 212 212 211 210 211 212 211 210 209 209 208 206 206 206 207 208 207 207 207 208 207 206 204
239 238 238 238 239 240 240 241 242 243 244 243 243 242 240 239 238 237 236 235 234 233 232 231 229 227 227 229 231 232 233 233 234 235 234 233 233 232 232 233 233 233 233 232 231 229 227 226 225 225 224 224 224 222 221 220 221 221 221 219 217 215 214 213 213 213 212 211 211 212 212 212 211 210 210 209 208 208 208 209 208 208 208 208 208 207 206
240 239 239 239 239 239 240 241 243 244 245 246 246 246 245 244 242 241 240 238 236 233 231 228 226 225 226 229 231 232 232 232 233 234 235 235 235 234 233 233 233 233 233 233 232 231 230 229 228 227 225 224 224 223 222 221 220 221 221 220 218 216 215 214 213 213 213 213 212 212 213 213 212 212 211 211 211 210 210 210 210 209 209 208 209 209 208
242 242 242 242 241 241 241 241 242 244 245 246 247 247 248 247 246 245 244 242 240 237 233 229 225 223 222 225 228 230 231 231 231 231 232 233 233 234 234 233 233 234 234 233 233 232 231 230 229 228 226 225 224 224 224 223 222 221 221 221 220 218 217 215 214 214 214 214 213 213 213 214 214 213 213 213 213 213 212 212 211 211 210 209 210 210 210
243 244 244 244 244 244 244 244 245 246 247 248 249 250 250 250 249 248 247 245 244 241 238 233 229 224 221 221 224 227 229 230 231 231 231 231 231 232 232 232 232 232 232 233 233 232 231 230 229 229 227 226 225 224 224 224 223 222 222 222 221 221 219 217 216 215 214 214 214 214 214 215 215 216 215 214 214 214 214 214 214 213 212 211 211 211 212
242 242 242 243 244 244 245 246 246 247 247 247 248 248 248 248 247 246 245 244 242 241 239 237 233 228 224 222 222 224 227 229 231 231 231 231 231 232 233 233 233 232 231 231 231 231 230 230 229 228 228 227 226 225 224 224 224 224 223 223 222 222 221 220 218 217 215 215 215 215 215 215 216 217 217 216 216 216 216 216 216 215 215 214 213 213 214
Height
10370 10373 10374 10373 10368 10365 10365 10366 10369 10370 10368 10364 10362 10361 10363 10363 10355 10359 10377 10379 10371 10381 10391 10389 10391 10395 10394 10393 10393 10396 10402 10403 10403 10402 10399 10400 10404 10407 10409 10411 10413 10415 10416 10418 10420 10422 10423 10425 10426 10428 10429 10431 10432 10432 10433 10434 10435 10436 10438 10439 10440 10440 10441 10443 10444 10445 10446 10446 10447 10447 10449 10450 10451 10454 10456 10457 10458 10461 10463 10465 10467 10469 10472 10475 10478 10480 10483
10360 10361 10359 10356 10353 10350 10350 10355 10359 10362 10362 10356 10350 10346 10345 10345 10340 10344 10359 10362 10357 10367 10380 10380 10377 10377 10378 10378 10377 10381 10388 10391 10389 10387 10386 10388 10391 10393 10396 10399 10401 10403 10403 10404 10406 10408 10410 10412 10414 10416 10418 10419 10420 10421 10421 10422 10423 10424 10425 10425 10426 10427 10428 10429 10430 10431 10432 10432 10433 10435 10436 10437 10438 10440 10441 10443 10444 10446 10449 10452 10454 10456 10458 10460 10462 10464 10467
10351 10352 10343 10338 10337 10334 10336 10346 10353 10352 10346 10338 10333 10332 10333 10333 10331 10335 10343 10344 10347 10362 10369 10365 10361 10360 10361 10364 10366 10370 10374 10375 10375 10374 10376 10378 10380 10381 10384 10386 10388 10389 10389 10390 10392 10394 10397 10399 10402 10404 10406 10407 10408 10409 10409 10410 10411 10411 10412 10412 10412 10413 10414 10415 10416 10417 10418 10419 10421 10423 10423 10424 10424 10425 10426 10428 10430 10432 10435 10437 10439 10442 10444 10445 10446 10448 10451
10340 10343 10329 10323 10322 10319 10326 10341 10343 10333 10322 10318 10321 10323 10324 10323 10321 10323 10326 10329 10342 10356 10351 10342 10346 10349 10348 10351 10356 10358 10360 10361 10363 10364 10365 10367 10369 10370 10372 10374 10375 10375 10376 10377 10379 10382 10385 10388 10391 10393 10394 10395 10396 10397 10397 10398 10399 10398 10398 10398 10399 10399 10400 10401 10402 10403 10405 10407 10409 10410 10409 10409 10409 10410 10411 10413 10415 10417 10420 10422 10424 10426 10427 10429 10430 10432 10435
10325 10329 10315 10308 10308 10311 10324 10331 10321 10310 10307 10308 10310 10311 10312 10311 10309 10310 10314 10321 10335 10341 10331 10327 10335 10337 10336 10339 10342 10344 10348 10352 10353 10352 10353 10356 10358 10359 10361 10362 10363 10363 10363 10365 10367 10371 10375 10378 10380 10381 10382 10384 10384 10385 10386 10386 10386 10385 10385 10385 10385 10385 10386 10387 10389 10390 10392 10394 10395 10395 10394 10394 10394 10395 10396 10398 10400 10402 10405 10407 10408 10410 10410 10412 10414 10416 10418
10308 10312 10300 10292 10295 10305 10316 10312 10300 10296 10297 10295 10294 10298 10302 10302 10299 10300 10305 10312 10319 10321 10317 10319 10323 10323 10324 10327 10329 10333 10339 10343 10341 10338 10340 10345 10347 10349 10351 10351 10351 10351 10352 10354 10357 10361 10365 10368 10369 10370 10371 10372 10372 10374 10374 10374 10373 10372 10372 10372 10371 10372 10373 10374 10376 10378 10380 10381 10381 10380 10380 10379 10380 10381 10382 10384 10386 10388 10390 10392 10393 10394 10395 10396 10399 10401 10403
10292 10296 10287 10279 10285 10297 10300 10295 10287 10282 10281 10281 10282 10288 10293 10291 10288 10289 10293 10299 10304 10303 10304 10309 10312 10312 10312 10314 10318 10324 10328 10332 10331 10329 10330 10334 10337 10339 10341 10340 10340 10341 10342 10344 10348 10352 10355 10357 10358 10360 10360 10361 10362 10363 10363 10362 10361 10360 10359 10359 10359 10359 10361 10363 10365 10367 10368 10368 10367 10367 10366 10366 10367 10368 10369 10371 10372 10374 10376 10377 10378 10379 10380 10382 10384 10386 10389
10277 10280 10275 10269 10275 10285 10286 10282 10275 10267 10266 10269 10271 10277 10282 10278 10274 10277 10283 10288 10290 10288 10291 10298 10301 10300 10301 10303 10308 10313 10318 10322 10321 10319 10319 10322 10326 10329 10330 10330 10331 10332 10333 10335 10338 10342 10345 10346 10348 10350 10350 10351 10353 10354 10353 10351 10350 10349 10348 10348 10348 10349 10351 10353 10355 10355 10355 10355 10354 10354 10353 10353 10354 10356 10357 10358 10359 10361 10363 10364 10365 10366 10367 10369 10371 10373 10376
10265 10265 10264 10261 10264 10273 10275 10271 10262 10255 10255 10257 10257 10264 10271 10265 10261 10267 10275 10278 10278 10278 10282 10287 10287 10288 10291 10295 10301 10305 10309 10312 10309 10307 10308 10312 10316 10319 10320 10321 10323 10324 10324 10326 10329 10333 10335 10337 10340 10341 10342 10344 10345 10344 10342 10341 10340 10339 10339 10338 10339 10341 10342 10343 10343 10343 10343 10343 10342 10341 10342 10342 10343 10345 10346 10347 10347 10349 10350 10352 10353 10354 10355 10357 10358 10361 10364
10255 10252 10252 10253 10256 10261 10263 10258 10250 10244 10244 10245 10247 10254 10258 10253 10251 10259 10266 10267 10268 10269 10271 10274 10275 10278 10283 10289 10295 10297 10298 10299 10297 10297 10300 10302 10305 10309 10311 10312 10314 10315 10316 10317 10320 10323 10326 10329 10332 10333 10334 10336 10336 10335 10333 10332 10331 10331 10330 10329 10331 10333 10333 10333 10333 10333 10333 10332 10331 10331 10332 10333 10333 10334 10335 10335 10336 10338 10340 10342 10342 10343 10344 10346 10347 10350 10354
10242 10238 10239 10243 10247 10250 10249 10243 10238 10235 10233 10234 10237 10242 10245 10243 10244 10251 10255 10256 10258 10258 10259 10263 10267 10271 10276 10282 10285 10285 10285 10287 10288 10289 10291 10293 10295 10300 10303 10304 10305 10306 10307 10309 10312 10315 10318 10322 10324 10324 10326 10328 10328 10326 10324 10323 10322 10322 10322 10322 10323 10324 10323 10323 10324 10324 10323 10322 10322 10322 10323 10323 10323 10324 10324 10326 10327 10329 10331 10332 10332 10332 10334 10336 10338 10340 10344
10227 10224 10226 10232 10235 10237 10235 10230 10226 10226 10225 10225 10227 10232 10235 10234 10236 10242 10245 10245 10246 10248 10250 10256 10261 10264 10268 10271 10273 10274 10275 10277 10279 10281 10283 10284 10286 10291 10295 10296 10296 10297 10299 10300 10303 10307 10312 10315 10316 10316 10319 10321 10319 10317 10316 10315 10315 10314 10315 10315 10315 10315 10315 10314 10315 10314 10314 10314 10314 10314 10314 10314 10314 10315 10316 10318 10319 10321 10322 10323 10323 10323 10325 10328 10330 10332 10335
10215 10214 10216 10220 10222 10222 10222 10219 10216 10216 10216 10216 10218 10222 10225 10224 10228 10233 10234 10233 10237 10239 10243 10249 10252 10255 10259 10262 10265 10266 10265 10266 10270 10273 10275 10277 10280 10284 10287 10288 10288 10289 10290 10292 10296 10300 10305 10308 10309 10310 10312 10313 10311 10309 10308 10307 10307 10308 10308 10308 10307 10307 10306 10306 10306 10306 10306 10307 10306 10306 10306 10306 10306 10308 10310 10311 10312 10313 10314 10314 10315 10316 10318 10321 10323 10325 10328
10206 10205 10205 10208 10211 10210 10209 10208 10208 10207 10206 10207 10209 10212 10213 10215 10220 10224 10223 10225 10229 10232 10235 10239 10242 10246 10251 10254 10256 10257 10257 10259 10263 10266 10268 10270 10273 10276 10279 10280 10279 10280 10282 10286 10290 10295 10299 10301 10302 10304 10305 10304 10303 10301 10300 10300 10301 10301 10301 10300 10299 10299 10298 10298 10299 10299 10299 10300 10299 10298 10298 10299 10300 10302 10304 10305 10305 10306 10307 10308 10309 10311 10312 10315 10318 10319 10322
10196 10195 10195 10198 10200 10200 10198 10199 10200 10197 10196 10198 10201 10201 10203 10207 10212 10214 10215 10218 10222 10225 10228 10230 10234 10239 10242 10244 10246 10248 10250 10252 10256 10258 10261 10264 10266 10269 10271 10272 10272 10273 10276 10280 10284 10288 10292 10294 10295 10297 10298 10297 10295 10294 10293 10294 10294 10294 10294 10293 10292 10292 10291 10291 10292 10292 10292 10293 10292 10292 10292 10294 10296 10297 10298 10299 10300 10300 10302 10303 10304 10306 10307 10310 10312 10314 10316
10185 10186 10187 10188 10189 10190 10190 10190 10190 10188 10188 10191 10193 10193 10194 10200 10204 10205 10206 10210 10214 10217 10220 10222 10227 10231 10234 10235 10237 10240 10243 10246 10248 10251 10254 10257 10260 10262 10263 10264 10265 10268 10271 10275 10278 10281 10285 10288 10288 10289 10290 10289 10287 10286 10287 10287 10288 10288 10287 10286 10285 10285 10285 10286 10285 10286 10286 10286 10286 10287 10288 10289 10290 10291 10292 10294 10295 10296 10297 10298 10299 10301 10303 10305 10307 10309 10311
10177 10179 10179 10178 10178 10181 10182 10182 10181 10180 10181 10184 10186 10186 10187 10192 10196 10197 10199 10202 10206 10209 10213 10215 10219 10222 10225 10227 10230 10233 10236 10239 10242 10245 10248 10250 10253 10255 10256 10258 10260 10262 10265 10269 10272 10275 10279 10282 10282 10282 10282 10281 10280 10280 10281 10281 10282 10281 10280 10279 10279 10279 10280 10279 10279 10280 10281 10281 10281 10282 10283 10284 10285 10286 10288 10290 10291 10291 10292 10293 10295 10297 10299 10300 10302 10304 10305
10171 10173 10170 10168 10171 10174 10174 10174 10174 10173 10174 10177 10179 10179 10180 10183 10188 10190 10192 10195 10198 10202 10206 10209 10211 10215 10218 10221 10223 10226 10229 10232 10235 10238 10241 10243 10245 10248 10250 10252 10253 10256 10260 10263 10266 10270 10273 10275 10275 10275 10275 10274 10274 10274 10275 10276 10276 10275 10274 10274 10274 10274 10274 10274 10274 10275 10276 10276 10277 10278 10278 10279 10281 10282 10284 10286 10287 10287 10288 10289 10291 10293 10294 10296 10298 10299 10301
10165 10164 10161 10160 10164 10166 10166 10167 10167 10166 10168 10170 10171 10172 10173 10176 10181 10185 10187 10189 10192 10195 10199 10202 10204 10208 10211 10213 10215 10218 10222 10225 10228 10231 10233 10236 10238 10241 10244 10245 10247 10250 10254 10258 10261 10264 10267 10268 10268 10268 10268 10268 10268 10268 10269 10270 10270 10269 10269 10268 10268 10268 10268 10269 10269 10271 10272 10273 10273 10274 10274 10276 10277 10279 10281 10283 10283 10283 10285 10286 10287 10288 10289 10291 10293 10295 10297
10159 10154 10152 10155 10159 10158 10158 10160 10160 10160 10161 10163 10164 10166 10168 10170 10176 10179 10181 10183 10186 10189 10192 10195 10198 10201 10204 10206 10209 10212 10215 10218 10220 10223 10227 10230 10232 10235 10238 10239 10242 10246 10249 10252 10255 10258 10260 10261 10261 10261 10262 10263 10262 10263 10264 10265 10264 10264 10263 10263 10263 10263 10264 10264 10266 10267 10269 10269 10270 10270 10271 10273 10274 10276 10278 10279 10280 10281 10282 10283 10283 10284 10285 10287 10289 10290 10292
10150 10145 10147 10151 10152 10150 10151 10153 10154 10154 10155 10157 10159 10161 10162 10165 10169 10173 10175 10178 10181 10183 10185 10188 10192 10195 10198 10200 10203 10205 10207 10210 10213 10217 10220 10223 10226 10229 10232 10234 10237 10240 10243 10246 10249 10252 10253 10254 10254 10255 10257 10257 10257 10258 10259 10259 10259 10258 10258 10258 10258 10259 10259 10261 10262 10264 10265 10266 10267 10267 10268 10270 10272 10273 10275 10276 10277 10278 10279 10279 10280 10281 10282 10283 10284 10285 10288
10141 10140 10143 10145 10143 10143 10145 10147 10147 10148 10149 10151 10153 10155 10156 10159 10163 10167 10170 10172 10175 10176 10178 10182 10186 10189 10191 10194 10197 10199 10200 10203 10207 10211 10214 10217 10220 10223 10225 10228 10231 10234 10236 10240 10243 10245 10246 10247 10248 10250 10251 10251 10252 10253 10254 10253 10253 10253 10253 10254 10254 10254 10255 10257 10259 10261 10262 10263 10264 10265 10266 10267 10269 10271 10272 10273 10274 10276 10276 10276 10277 10278 10278 10279 10280 10281 10283
10132 10134 10137 10137 10135 10137 10140 10140 10140 10141 10143 10146 10148 10149 10151 10154 10157 10161 10164 10167 10168 10170 10172 10176 10180 10182 10185 10188 10191 10192 10194 10197 10201 10205 10208 10211 10214 10216 10219 10222 10225 10227 10231 10235 10237 10238 10239 10241 10242 10244 10245 10246 10247 10247 10248 10248 10248 10248 10249 10249 10250 10251 10252 10253 10255 10257 10258 10260 10261 10262 10263 10265 10266 10268 10270 10270 10271 10273 10273 10273 10274 10274 10275 10275 10276 10277 10278
10126 10129 10132 10130 10129 10132 10134 10134 10134 10136 10139 10141 10142 10144 10146 10148 10151 10155 10158 10160 10162 10163 10166 10170 10174 10177 10179 10182 10184 10186 10188 10192 10195 10199 10202 10205 10207 10210 10214 10216 10219 10222 10226 10229 10231 10232 10233 10235 10237 10238 10240 10241 10241 10241 10242 10242 10243 10244 10245 10245 10246 10247 10248 10250 10252 10254 10255 10256 10257 10259 10260 10262 10264 10266 10267 10267 10268 10270 10271 10271 10271 10271 10271 10272 10272 10272 10273
10122 10125 10126 10125 10124 10127 10129 10128 10129 10132 10134 10136 10137 10138 10140 10143 10145 10148 10151 10154 10156 10158 10160 10164 10168 10171 10173 10176 10178 10179 10183 10187 10190 10193 10196 10198 10201 10205 10208 10210 10213 10217 10221 10224 10225 10226 10228 10230 10232 10234 10235 10235 10235 10236 10237 10238 10239 10240 10241 10241 10242 10243 10244 10247 10249 10251 10252 10253 10254 10256 10258 10260 10262 10264 10265 10265 10265 10267 10268 10268 10268 10268 10268 10268 10268 10268 10268
10118 10119 10120 10119 10119 10122 10123 10123 10124 10127 10129 10130 10131 10133 10135 10137 10140 10142 10145 10148 10151 10153 10156 10159 10162 10166 10168 10170 10172 10174 10178 10181 10184 10187 10190 10192 10195 10199 10202 10204 10208 10213 10216 10218 10220 10221 10223 10225 10227 10229 10230 10230 10230 10231 10232 10234 10235 10236 10237 10238 10239 10240 10241 10243 10245 10248 10250 10251 10252 10254 10256 10257 10260 10262 10262 10262 10263 10264 10265 10265 10265 10265 10264 10264 10264 10264 10264
10112 10114 10114 10113 10114 10116 10117 10117 10119 10121 10123 10125 10126 10128 10130 10133 10135 10137 10140 10143 10146 10149 10151 10154 10158 10161 10163 10165 10167 10170 10173 10176 10179 10181 10184 10187 10190 10193 10196 10199 10203 10208 10211 10213 10215 10217 10218 10220 10222 10224 10224 10224 10225 10226 10228 10230 10231 10233 10234 10235 10236 10237 10238 10240 10242 10245 10247 10248 10250 10252 10253 10255 10257 10259 10260 10260 10260 10261 10262 10262 10262 10262 10262 10261 10261 10261 10260
10107 10108 10108 10107 10108 10110 10111 10112 10114 10116 10118 10120 10122 10124 10126 10129 10131 10133 10135 10138 10141 10143 10146 10150 10153 10155 10157 10160 10162 10164 10167 10170 10173 10176 10178 10181 10184 10188 10191 10195 10199 10203 10207 10209 10210 10212 10213 10215 10218 10219 10219 10219 10221 10223 10224 10226 10228 10230 10231 10232 10233 10234 10235 10237 10240 10242 10244 10246 10247 10249 10251 10253 10255 10257 10258 10258 10259 10259 10260 10260 10260 10260 10260 10260 10259 10258 10258
10101 10101 10102 10102 10103 10104 10106 10108 10110 10111 10113 10115 10117 10119 10122 10124 10126 10128 10131 10133 10135 10138 10141 10145 10148 10150 10152 10155 10157 10159 10162 10165 10168 10171 10174 10176 10180 10183 10186 10190 10194 10199 10202 10204 10206 10207 10209 10211 10213 10214 10214 10215 10217 10218 10220 10222 10225 10227 10228 10229 10230 10231 10233 10235 10237 10239 10242 10243 10245 10247 10249 10251 10253 10255 10257 10257 10257 10258 10258 10259 10259 10259 10259 10259 10258 10257 10256
10095 10096 10096 10097 10098 10099 10101 10103 10105 10107 10109 10111 10112 10115 10117 10119 10122 10124 10126 10128 10130 10133 10136 10139 10142 10145 10148 10150 10152 10155 10157 10160 10163 10166 10169 10172 10175 10179 10182 10186 10190 10193 10197 10199 10201 10203 10204 10206 10208 10209 10210 10211 10212 10214 10216 10219 10221 10223 10224 10226 10227 10229 10230 10232 10234 10237 10239 10241 10243 10245 10247 10249 10251 10253 10255 10255 10256 10257 10257 10258 10259 10259 10259 10259 10258 10257 10256
10090 10091 10091 10092 10094 10095 10097 10099 10101 10103 10104 10106 10108 10111 10113 10115 10117 10119 10121 10123 10126 10128 10131 10135 10138 10141 10144 10146 10148 10150 10153 10155 10158 10161 10164 10167 10170 10174 10177 10181 10184 10188 10192 10194 10196 10198 10200 10201 10203 10204 10205 10206 10208 10210 10212 10215 10218 10220 10221 10223 10224 10225 10227 10229 10231 10234 10237 10239 10241 10243 10244 10246 10249 10251 10253 10254 10255 10256 10257 10258 10258 10259 10259 10259 10259 10258 10257
10086 10086 10087 10088 10090 10091 10093 10094 10096 10098 10100 10102 10104 10106 10109 10111 10114 10115 10116 10118 10120 10123 10127 10131 10134 10137 10139 10142 10144 10146 10148 10151 10154 10156 10159 10162 10165 10169 10172 10176 10179 10183 10187 10189 10191 10193 10195 10197 10198 10199 10200 10202 10203 10206 10208 10211 10214 10216 10217 10219 10220 10222 10224 10226 10228 10232 10235 10237 10239 10241 10242 10244 10247 10249 10251 10252 10254 10255 10256 10257 10258 10259 10260 10260 10260 10260 10260
10081 10082 10083 10084 10086 10087 10088 10090 10091 10093 10095 10098 10100 10102 10105 10107 10108 10109 10110 10113 10115 10119 10124 10128 10130 10132 10135 10137 10140 10142 10144 10146 10148 10151 10154 10157 10160 10163 10167 10171 10174 10178 10181 10184 10186 10189 10191 10192 10194 10195 10196 10197 10199 10202 10204 10207 10210 10212 10214 10215 10216 10218 10221 10223 10226 10229 10233 10235 10237 10239 10241 10243 10245 10247 10249 10251 10253 10254 10256 10257 10258 10260 10261 10261 10262 10262 10263
10077 10078 10079 10080 10082 10083 10084 10085 10087 10089 10091 10093 10096 10098 10101 10102 10103 10104 10107 10110 10113 10117 10122 10124 10125 10128 10131 10133 10134 10137 10139 10141 10143 10146 10149 10152 10155 10158 10162 10165 10169 10173 10176 10179 10181 10183 10185 10187 10189 10190 10191 10192 10195 10198 10200 10203 10205 10208 10210 10212 10213 10215 10218 10221 10224 10227 10230 10233 10235 10237 10239 10241 10244 10246 10248 10249 10252 10254 10256 10257 10259 10260 10261 10263 10264 10265 10266
10073 10074 10075 10076 10078 10079 10080 10081 10083 10085 10087 10090 10092 10095 10096 10097 10099 10101 10104 10107 10110 10114 10118 10119 10121 10123 10126 10128 10130 10132 10134 10136 10138 10141 10144 10147 10150 10153 10156 10159 10164 10167 10170 10173 10175 10178 10180 10182 10184 10186 10187 10188 10190 10193 10195 10198 10200 10204 10207 10208 10210 10212 10215 10218 10221 10223 10227 10230 10232 10234 10236 10239 10242 10244 10246 10248 10251 10253 10255 10257 10259 10260 10262 10264 10266 10268 10269
10069 10070 10071 10072 10074 10075 10076 10077 10079 10081 10084 10086 10089 10091 10092 10093 10095 10098 10100 10103 10106 10110 10113 10114 10115 10118 10121 10123 10125 10127 10128 10130 10133 10136 10139 10142 10144 10147 10150 10154 10158 10161 10164 10167 10170 10172 10174 10177 10179 10180 10182 10183 10185 10188 10191 10193 10196 10200 10203 10205 10206 10209 10212 10215 10217 10220 10223 10227 10229 10231 10233 10236 10239 10242 10245 10247 10249 10252 10254 10256 10258 10260 10262 10265 10267 10270 10272
10065 10066 10068 10069 10070 10071 10072 10074 10076 10078 10080 10083 10085 10086 10088 10089 10091 10093 10096 10098 10101 10104 10107 10108 10110 10113 10116 10118 10120 10122 10123 10125 10128 10130 10133 10136 10138 10141 10145 10148 10152 10155 10159 10162 10164 10166 10169 10171 10173 10175 10177 10179 10181 10184 10186 10188 10192 10195 10198 10200 10203 10206 10209 10211 10213 10216 10220 10223 10226 10228 10230 10234 10237 10240 10243 10246 10248 10251 10253 10255 10258 10260 10262 10265 10267 10270 10272
10061 10063 10064 10066 10067 10068 10069 10070 10072 10074 10076 10079 10080 10082 10083 10085 10087 10089 10091 10093 10096 10098 10100 10102 10104 10107 10110 10113 10115 10117 10118 10120 10122 10125 10127 10130 10133 10137 10139 10143 10146 10150 10153 10156 10159 10161 10163 10165 10168 10170 10172 10174 10176 10179 10181 10184 10187 10191 10194 10197 10199 10202 10205 10207 10210 10213 10216 10219 10223 10225 10228 10231 10235 10238 10241 10244 10247 10249 10252 10254 10257 10259 10262 10264 10266 10269 10272
10057 10059 10061 10062 10063 10064 10065 10066 10068 10070 10072 10074 10076 10077 10078 10080 10081 10083 10085 10087 10089 10091 10094 10096 10099 10102 10105 10107 10110 10112 10114 10115 10117 10120 10122 10125 10128 10131 10134 10137 10141 10145 10148 10151 10153 10155 10157 10160 10162 10165 10167 10169 10172 10174 10177 10179 10182 10186 10189 10193 10196 10199 10201 10204 10207 10210 10213 10216 10219 10222 10225 10228 10233 10236 10240 10242 10245 10247 10250 10253 10256 10258 10261 10264 10266 10268 10271
10052 10054 10057 10059 10059 10060 10061 10062 10063 10065 10067 10069 10070 10072 10074 10075 10077 10078 10079 10081 10083 10086 10089 10092 10095 10098 10101 10103 10106 10108 10109 10111 10113 10115 10118 10120 10123 10126 10129 10132 10136 10139 10142 10145 10147 10150 10152 10154 10157 10160 10162 10165 10167 10170 10172 10175 10178 10181 10185 10188 10191 10194 10197 10201 10204 10207 10209 10212 10215 10218 10221 10225 10229 10234 10237 10240 10243 10246 10248 10251 10254 10257 10260 10262 10265 10267 10270
10049 10051 10053 10054 10055 10056 10056 10057 10059 10061 10063 10065 10066 10069 10071 10073 10074 10075 10076 10078 10080 10083 10086 10089 10092 10095 10098 10100 10102 10104 10106 10107 10109 10112 10114 10116 10119 10121 10124 10127 10130 10133 10136 10139 10141 10144 10147 10149 10152 10155 10158 10160 10162 10165 10168 10170 10173 10176 10180 10183 10186 10189 10193 10196 10199 10202 10205 10208 10211 10214 10218 10221 10226 10230 10234 10238 10241 10244 10246 10249 10252 10255 10258 10260 10263 10266 10268
10045 10047 10049 10050 10051 10051 10052 10053 10055 10057 10059 10061 10062 10065 10067 10068 10070 10071 10072 10074 10076 10079 10081 10084 10088 10091 10093 10095 10097 10099 10100 10102 10104 10107 10109 10111 10113 10115 10118 10120 10123 10126 10130 10133 10136 10139 10142 10144 10147 10151 10153 10156 10158 10160 10163 10166 10169 10172 10175 10178 10181 10184 10188 10191 10195 10198 10201 10204 10207 10210 10213 10217 10222 10226 10230 10234 10237 10241 10244 10246 10249 10252 10255 10258 10261 10263 10266
10041 10043 10044 10045 10046 10047 10048 10049 10051 10052 10054 10056 10058 10060 10062 10063 10065 10066 10067 10068 10071 10073 10075 10079 10083 10086 10088 10089 10092 10093 10095 10096 10098 10101 10103 10105 10107 10109 10111 10114 10116 10120 10123 10127 10130 10133 10136 10139 10142 10145 10148 10150 10153 10155 10158 10161 10164 10167 10170 10174 10177 10180 10183 10187 10190 10193 10196 10199 10202 10206 10209 10213 10217 10222 10226 10229 10233 10236 10240 10243 10246 10250 10253 10255 10258 10260 10263
10037 10039 10040 10041 10042 10043 10044 10045 10046 10048 10049 10051 10053 10055 10057 10058 10060 10061 10062 10064 10065 10067 10070 10074 10078 10080 10081 10082 10085 10086 10088 10090 10091 10094 10096 10098 10100 10103 10105 10107 10110 10114 10117 10121 10125 10128 10131 10133 10136 10139 10142 10145 10148 10150 10153 10155 10159 10162 10165 10169 10172 10175 10179 10182 10186 10189 10192 10195 10198 10201 10204 10208 10212 10217 10221 10225 10228 10232 10235 10239 10243 10246 10249 10252 10255 10257 10260
10034 10035 10036 10037 10038 10039 10040 10041 10042 10043 10045 10046 10048 10050 10052 10053 10055 10056 10058 10059 10061 10063 10065 10069 10072 10074 10074 10076 10078 10080 10081 10083 10085 10087 10089 10092 10094 10096 10099 10101 10104 10107 10111 10115 10118 10122 10124 10127 10130 10133 10136 10139 10142 10145 10147 10150 10153 10157 10160 10164 10167 10170 10174 10178 10181 10184 10187 10190 10194 10197 10200 10203 10207 10211 10216 10220 10223 10227 10231 10234 10238 10242 10245 10249 10252 10255 10257
10030 10031 10032 10033 10034 10035 10035 10036 10037 10039 10040 10041 10043 10045 10046 10048 10049 10051 10052 10054 10056 10058 10060 10064 10067 10068 10068 10070 10072 10074 10075 10077 10079 10082 10084 10086 10089 10091 10093 10095 10098 10101 10104 10108 10112 10115 10118 10121 10124 10127 10130 10133 10136 10139 10142 10144 10147 10151 10155 10158 10161 10165 10168 10172 10176 10179 10182 10185 10189 10192 10195 10198 10202 10206 10210 10214 10218 10222 10225 10229 10233 10237 10240 10244 10247 10251 10254
10026 10026 10027 10028 10029 10030 10031 10032 10033 10034 10035 10036 10038 10039 10041 10042 10044 10046 10047 10049 10051 10053 10055 10058 10061 10062 10063 10064 10066 10068 10071 10073 10075 10076 10079 10081 10084 10086 10088 10091 10093 10095 10099 10102 10106 10109 10112 10115 10118 10121 10124 10127 10130 10133 10136 10139 10142 10145 10148 10152 10156 10159 10162 10166 10170 10174 10177 10180 10183 10186 10190 10193 10197 10201 10204 10208 10212 10216 10220 10224 10228 10232 10235 10239 10242 10246 10249
10021 10022 10023 10023 10024 10025 10026 10027 10028 10029 10030 10031 10033 10034 10036 10037 10039 10040 10042 10044 10046 10048 10050 10052 10055 10057 10058 10059 10061 10063 10066 10068 10069 10071 10073 10075 10078 10080 10083 10085 10087 10090 10093 10096 10100 10103 10106 10109 10112 10115 10118 10121 10124 10127 10130 10133 10136 10139 10142 10146 10149 10153 10156 10160 10164 10168 10171 10174 10177 10181 10184 10188 10191 10195 10199 10203 10207 10210 10214 10218 10222 10226 10230 10234 10237 10241 10244
10016 10017 10018 10019 10020 10021 10022 10022 10023 10024 10025 10026 10028 10029 10031 10032 10034 10036 10037 10039 10041 10042 10045 10047 10049 10051 10053 10054 10056 10058 10060 10062 10064 10066 10067 10069 10072 10074 10077 10079 10081 10084 10087 10090 10093 10097 10100 10103 10106 10109 10112 10114 10117 10120 10123 10126 10129 10132 10135 10138 10142 10146 10149 10153 10157 10161 10165 10169 10172 10175 10178 10181 10185 10189 10193 10197 10200 10204 10208 10212 10216 10220 10224 10228 10232 10235 10239
10011 10012 10013 10014 10015 10016 10017 10018 10019 10019 10020 10021 10023 10024 10026 10027 10029 10031 10033 10034 10036 10037 10039 10041 10043 10045 10047 10048 10049 10051 10053 10055 10057 10059 10061 10063 10065 10067 10070 10072 10075 10077 10080 10083 10086 10090 10093 10096 10099 10102 10104 10107 10110 10113 10116 10119 10122 10125 10128 10131 10135 10138 10142 10146 10150 10154 10158 10162 10166 10169 10172 10175 10179 10182 10186 10190 10194 10198 10202 10206 10210 10214 10218 10222 10226 10230 10233
10006 10007 10008 10009 10010 10012 10013 10014 10015 10016 10016 10017 10018 10020 10021 10023 10024 10026 10028 10029 10031 10032 10034 10035 10037 10039 10041 10042 10043 10044 10046 10048 10050 10052 10054 10056 10058 10060 10062 10065 10067 10070 10073 10076 10079 10082 10085 10088 10091 10094 10097 10100 10103 10106 10109 10112 10115 10118 10121 10125 10128 10131 10135 10139 10142 10146 10150 10155 10159 10163 10166 10169 10173 10176 10179 10183 10187 10191 10195 10199 10203 10208 10212 10215 10219 10223 10227
10001 10002 10003 10004 10005 10007 10008 10009 10010 10011 10012 10013 10014 10014 10015 10017 10018 10020 10021 10023 10024 10026 10027 10029 10031 10033 10034 10036 10037 10038 10039 10041 10042 10044 10047 10049 10051 10053 10055 10058 10060 10063 10066 10069 10072 10074 10077 10080 10083 10086 10089 10092 10095 10098 10101 10105 10108 10111 10114 10118 10121 10125 10128 10132 10135 10139 10143 10147 10152 10156 10160 10163 10167 10170 10173 10176 10180 10184 10188 10192 10196 10201 10205 10209 10212 10216 10220